Weather in Kurdzhipskaya

Russia / Republic of Adygea     44°27′23″N   40°03′00″E
temp.,
°C
wind,
m/s
gust,
m/s
humid.,
%
clouds,
%
prec.,
mm/h
press.,
hPa
HPBL,
m
27 january, thu
thu2700:00−2nnw1299100 0.8 1018127
03:00−3nnw1298100 2.0 1018172
06:00−4nnw119994 0.5 101820
09:00−3wnw1296100 1.0 1019209
12:00−1wnw2386100 0.3 1019715
15:00−1nw248881 0.4 1020546
18:00−2n1396100 0.1 1021194
21:00−3w019886 0.1 102275
28 january, fri
fri2800:00−8s219770 0.0 102319
03:00−9sse2294100 0.0 102229
06:00−7sse119393 0.1 102232
09:00−4sse128759 0.1 102295
12:00+2wsw388521 0.1 1020955
15:00+3wsw510807 0.1 10191082
18:00−3sw249083 0.0 102073
21:00−5s2391100 0.0 102050
29 january, sat
sat2900:00−5s2391100 0.0 102074
03:00−4s2490100 0.1 102094
06:00−3s239164 0.1 101975
09:00−2ssw2484100 0.1 1020136
12:00+4sw3107410 0.0 10191105
15:00+4sw3975100 0.0 1018684
18:00−1wsw3689100 0.0 1020155
21:00−2ssw2689100 0.0 1021135
30 january, sun
sun3000:00−2sw2592100 0.0 1022175
03:00−3sw149698 0.0 1022142
06:00−3ssw1394100 0.0 1021139
09:00−1s239060 0.0 1020170
12:00+4sw397669 0.0 1017890
15:00+4ssw387213 0.0 1014976
18:00−1sse1192100 0.0 101415
21:00−2sse2288100 0.0 101245
31 january, mon
mon3100:000s2580100 0.0 1010140
03:00+2sw51367100 0.0 1008725
06:00+1sw51482100 0.2 1008956
09:00+3sw81894100 2.5 10101617
12:00+4wsw7157627 0.8 10121750
15:00+3wsw7158428 1.3 10121461
18:00+2wsw51278100 0.1 1013740
21:00+1sw3994100 0.7 1013539